Location: Tel Aviv
(32.0670°N, 34.7670°E)
Time: 01:19:57
(UTC+02:00)

Transit 4A - Pass Details

Date: 09 December 2023
Orbit: 869 x 974 km, 66.8° (Epoch: 23 February)

Event Time Altitude Azimuth Distance (km) Brightness Sun altitude
Exits shadow 03:56:25 51° 39° (NE) 1,119 8.4 -31.7°
Maximum altitude 03:57:02 53° 61° (ENE) 1,089 8.4 -31.5°
Drops below altitude 10° 04:02:44 10° 138° (SE) 2,531 10.8 -30.4°
Sets 04:05:15 0° 143° (SE) 3,456 11.5 -29.8°
